Location: Patterson (historical)
(35.1418°N, 90.5529°W)
Time: 18:41:04
(UTC+00:00)

CZ-2D R/B - Pass Details

Date: 11 December 2025
Orbit: 525 x 597 km, 98.0° (Epoch: 20 January)

Event Time Altitude Azimuth Distance (km) Brightness Sun altitude
Rises 23:48:46 0° 142° (SE) 2,829 6.8 -11.7°
Reaches altitude 10° 23:51:08 10° 131° (SE) 1,929 5.8 -12.1°
Maximum altitude 23:54:46 29° 72° (ENE) 1,098 4.3 -12.8°
Drops below altitude 10° 23:58:22 10° 12° (NNE) 1,920 5.8 -13.5°
Sets 00:00:43 0° 1° (N) 2,815 6.7 -14.0°
